| time (UTC) | temp F | wind direction | speed MPH | gust MPH | rain 1hr in | rain 24hr in | rain mn in | humidity % | barometer mb |
| 20260510010057 | 88 | 360 | 12.0 | 22.0 | 0.00 | 0.00 | 0.00 | 21 | 1004.9 |
| 20260510004540 | 89 | 360 | 13.0 | 23.0 | 0.00 | 0.00 | 0.00 | 20 | 1004.9 |
| 20260510003039 | 89 | 360 | 14.0 | 20.0 | 0.00 | 0.00 | 0.00 | 20 | 1005.0 |
| 20260510001538 | 90 | 360 | 13.0 | 20.0 | 0.00 | 0.00 | 0.00 | 19 | 1005.1 |
| 20260510000042 | 91 | 360 | 11.0 | 24.0 | 0.00 | 0.00 | 0.00 | 19 | 1005.2 |
| 20260509234553 | 92 | 360 | 11.0 | 18.0 | 0.00 | 0.00 | 0.00 | 17 | 1005.2 |
| 20260509233036 | 92 | 360 | 11.0 | 18.0 | 0.00 | 0.00 | 0.00 | 17 | 1005.2 |
| 20260509231536 | 92 | 360 | 16.0 | 30.0 | 0.00 | 0.00 | 0.00 | 16 | 1005.1 |
| 20260509230034 | 93 | 360 | 10.0 | 20.0 | 0.00 | 0.00 | 0.00 | 16 | 1005.3 |
| 20260509224533 | 93 | 360 | 11.0 | 20.0 | 0.00 | 0.00 | 0.00 | 15 | 1005.6 |
| 20260509223032 | 92 | 360 | 8.0 | 19.0 | 0.00 | 0.00 | 0.00 | 16 | 1005.8 |
| 20260509221548 | 93 | 360 | 11.0 | 20.0 | 0.00 | 0.00 | 0.00 | 15 | 1005.8 |
| 20260509220029 | 93 | 360 | 10.0 | 17.0 | 0.00 | 0.00 | 0.00 | 16 | 1006.0 |
| 20260509214527 | 92 | 360 | 7.0 | 19.0 | 0.00 | 0.00 | 0.00 | 17 | 1006.1 |
| 20260509213028 | 92 | 360 | 12.0 | 24.0 | 0.00 | 0.00 | 0.00 | 18 | 1006.3 |
| 20260509211526 | 92 | 360 | 18.0 | 27.0 | 0.00 | 0.00 | 0.00 | 18 | 1006.5 |
| 20260509210025 | 92 | 117 | 8.0 | 19.0 | 0.00 | 0.00 | 0.00 | 17 | 1006.4 |
| 20260509204522 | 93 | 360 | 11.0 | 22.0 | 0.00 | 0.00 | 0.00 | 17 | 1006.8 |
| 20260509203021 | 92 | 360 | 6.0 | 20.0 | 0.00 | 0.00 | 0.00 | 17 | 1007.0 |
| 20260509201518 | 92 | 360 | 9.0 | 17.0 | 0.00 | 0.00 | 0.00 | 19 | 1007.2 |
| 20260509200016 | 92 | 360 | 10.0 | 21.0 | 0.00 | 0.00 | 0.00 | 19 | 1007.3 |
| 20260509194517 | 92 | 360 | 1.0 | 22.0 | 0.00 | 0.00 | 0.00 | 19 | 1007.6 |
| 20260509193013 | 92 | 360 | 9.0 | 17.0 | 0.00 | 0.00 | 0.00 | 19 | 1007.8 |
| 20260509191511 | 91 | 360 | 5.0 | 22.0 | 0.00 | 0.00 | 0.00 | 20 | 1007.8 |
| 20260509190008 | 90 | 111 | 10.0 | 18.0 | 0.00 | 0.00 | 0.00 | 23 | 1008.0 |
| 20260509184518 | 90 | 360 | 10.0 | 17.0 | 0.00 | 0.00 | 0.00 | 23 | 1008.1 |
| 20260509183005 | 90 | 360 | 11.0 | 18.0 | 0.00 | 0.00 | 0.00 | 22 | 1008.5 |
| 20260509181503 | 89 | 232 | 9.0 | 18.0 | 0.00 | 0.00 | 0.00 | 23 | 1008.6 |
| 20260509180001 | 89 | 360 | 6.0 | 18.0 | 0.00 | 0.00 | 0.00 | 24 | 1008.9 |
| 20260509174559 | 89 | 360 | 10.0 | 18.0 | 0.00 | 0.00 | 0.00 | 24 | 1009.0 |
| 20260509173108 | 88 | 360 | 7.0 | 19.0 | 0.00 | 0.00 | 0.00 | 26 | 1009.2 |
| 20260509171612 | 87 | 360 | 9.0 | 21.0 | 0.00 | 0.00 | 0.00 | 28 | 1009.3 |
| 20260509170055 | 87 | 239 | 10.0 | 18.0 | 0.00 | 0.00 | 0.00 | 28 | 1009.3 |
| 20260509164554 | 86 | 242 | 11.0 | 17.0 | 0.00 | 0.00 | 0.00 | 30 | 1009.4 |
| 20260509163056 | 85 | 360 | 10.0 | 17.0 | 0.00 | 0.00 | 0.00 | 34 | 1009.6 |
| 20260509161547 | 84 | 256 | 11.0 | 18.0 | 0.00 | 0.00 | 0.00 | 36 | 1009.8 |
| 20260509160044 | 83 | 360 | 12.0 | 17.0 | 0.00 | 0.00 | 0.00 | 37 | 1009.9 |
| 20260509154542 | 82 | 360 | 12.0 | 17.0 | 0.00 | 0.00 | 0.00 | 40 | 1010.0 |
| 20260509153039 | 81 | 360 | 11.0 | 17.0 | 0.00 | 0.00 | 0.00 | 43 | 1010.2 |
| 20260509151536 | 79 | 360 | 8.0 | 14.0 | 0.00 | 0.00 | 0.00 | 48 | 1010.2 |
| 20260509150032 | 77 | 232 | 11.0 | 17.0 | 0.00 | 0.00 | 0.00 | 49 | 1010.4 |
| 20260509144529 | 76 | 360 | 10.0 | 16.0 | 0.00 | 0.00 | 0.00 | 52 | 1010.4 |
| 20260509143025 | 75 | 236 | 9.0 | 16.0 | 0.00 | 0.00 | 0.00 | 54 | 1010.5 |
| 20260509141528 | 73 | 360 | 11.0 | 16.0 | 0.00 | 0.00 | 0.00 | 55 | 1010.8 |
| 20260509140031 | 72 | 360 | 12.0 | 16.0 | 0.00 | 0.00 | 0.00 | 55 | 1010.9 |
| 20260509134518 | 71 | 360 | 10.0 | 16.0 | 0.00 | 0.00 | 0.00 | 55 | 1011.2 |
| 20260509133018 | 70 | 360 | 7.0 | 12.0 | 0.00 | 0.00 | 0.00 | 57 | 1011.1 |
| 20260509131518 | 69 | 230 | 6.0 | 12.0 | 0.00 | 0.00 | 0.00 | 58 | 1011.1 |
| 20260509130025 | 68 | 360 | 4.0 | 10.0 | 0.00 | 0.00 | 0.00 | 60 | 1011.1 |
| 20260509124525 | 67 | 360 | 5.0 | 13.0 | 0.00 | 0.00 | 0.00 | 61 | 1010.7 |
| 20260509123020 | 67 | 360 | 9.0 | 14.0 | 0.00 | 0.00 | 0.00 | 61 | 1010.5 |
| 20260509121514 | 67 | 360 | 9.0 | 13.0 | 0.00 | 0.00 | 0.00 | 60 | 1010.2 |
| 20260509120010 | 68 | 360 | 11.0 | 20.0 | 0.00 | 0.00 | 0.00 | 60 | 1010.0 |
| 20260509114508 | 68 | 360 | 7.0 | 13.0 | 0.00 | 0.00 | 0.00 | 61 | 1009.9 |
| 20260509113009 | 68 | 360 | 5.0 | 11.0 | 0.00 | 0.00 | 0.00 | 63 | 1009.8 |
| 20260509111508 | 67 | 360 | 3.0 | 8.0 | 0.00 | 0.00 | 0.00 | 63 | 1009.2 |
| 20260509110017 | 67 | 360 | 3.0 | 12.0 | 0.00 | 0.00 | 0.00 | 63 | 1009.4 |
| 20260509104507 | 67 | 360 | 7.0 | 15.0 | 0.00 | 0.00 | 0.00 | 63 | 1009.1 |
| 20260509103006 | 68 | 360 | 7.0 | 16.0 | 0.00 | 0.00 | 0.00 | 63 | 1009.0 |
| 20260509101510 | 68 | 360 | 16.0 | 21.0 | 0.00 | 0.00 | 0.00 | 63 | 1008.9 |
| 20260509100005 | 68 | 360 | 15.0 | 19.0 | 0.00 | 0.00 | 0.00 | 64 | 1008.8 |
| 20260509094503 | 68 | 360 | 14.0 | 21.0 | 0.00 | 0.00 | 0.00 | 64 | 1009.0 |
| 20260509093006 | 67 | 360 | 13.0 | 20.0 | 0.00 | 0.00 | 0.00 | 65 | 1008.9 |
| 20260509091501 | 67 | 360 | 11.0 | 18.0 | 0.00 | 0.00 | 0.00 | 64 | 1009.0 |
| 20260509090106 | 67 | 360 | 14.0 | 17.0 | 0.00 | 0.00 | 0.00 | 63 | 1009.1 |
| 20260509084604 | 67 | 360 | 10.0 | 14.0 | 0.00 | 0.00 | 0.00 | 62 | 1009.3 |
| 20260509083057 | 68 | 360 | 5.0 | 9.0 | 0.00 | 0.00 | 0.00 | 64 | 1009.6 |
| 20260509081555 | 68 | 360 | 6.0 | 10.0 | 0.00 | 0.00 | 0.00 | 63 | 1009.7 |
| 20260509080056 | 69 | 360 | 7.0 | 13.0 | 0.00 | 0.00 | 0.00 | 59 | 1009.8 |
| 20260509074601 | 69 | 360 | 10.0 | 14.0 | 0.00 | 0.00 | 0.00 | 60 | 1010.0 |
| 20260509073054 | 68 | 360 | 8.0 | 11.0 | 0.00 | 0.00 | 0.00 | 61 | 1010.3 |
| 20260509071555 | 67 | 360 | 11.0 | 15.0 | 0.00 | 0.00 | 0.00 | 62 | 1010.4 |
| 20260509070055 | 68 | 360 | 4.0 | 5.0 | 0.00 | 0.00 | 0.00 | 60 | 1009.1 |
| 20260509064545 | 70 | 360 | 4.0 | 9.0 | 0.00 | 0.00 | 0.00 | 58 | 1008.9 |
| 20260509063043 | 70 | 360 | 5.0 | 8.0 | 0.00 | 0.00 | 0.00 | 58 | 1009.2 |
| 20260509061542 | 70 | 234 | 4.0 | 8.0 | 0.00 | 0.00 | 0.00 | 58 | 1009.0 |
| 20260509060040 | 71 | 234 | 5.0 | 7.0 | 0.00 | 0.00 | 0.00 | 57 | 1009.1 |
| 20260509054548 | 71 | 360 | 3.0 | 8.0 | 0.00 | 0.00 | 0.00 | 56 | 1009.2 |
| 20260509053124 | 72 | 360 | 2.0 | 6.0 | 0.00 | 0.00 | 0.00 | 55 | 1009.5 |
| 20260509051545 | 73 | 360 | 5.0 | 11.0 | 0.00 | 0.00 | 0.00 | 54 | 1009.6 |
| 20260509050039 | 73 | 360 | 7.0 | 21.0 | 0.00 | 0.00 | 0.00 | 54 | 1009.1 |
| 20260509044530 | 73 | 229 | 6.0 | 13.0 | 0.00 | 0.00 | 0.00 | 54 | 1008.8 |
| 20260509043030 | 73 | 360 | 10.0 | 16.0 | 0.00 | 0.00 | 0.00 | 54 | 1008.4 |
| 20260509041529 | 73 | 360 | 13.0 | 19.0 | 0.00 | 0.00 | 0.00 | 54 | 1008.3 |
| 20260509040028 | 73 | 360 | 10.0 | 20.0 | 0.00 | 0.00 | 0.00 | 54 | 1008.2 |
| 20260509034528 | 73 | 360 | 9.0 | 19.0 | 0.00 | 0.00 | 0.00 | 54 | 1007.9 |
| 20260509033027 | 73 | 360 | 11.0 | 17.0 | 0.00 | 0.00 | 0.00 | 54 | 1007.9 |
| 20260509031526 | 74 | 360 | 7.0 | 15.0 | 0.00 | 0.00 | 0.00 | 53 | 1007.7 |
| 20260509030032 | 74 | 360 | 8.0 | 15.0 | 0.00 | 0.00 | 0.00 | 53 | 1007.6 |
| 20260509024525 | 74 | 360 | 7.0 | 15.0 | 0.00 | 0.00 | 0.00 | 52 | 1007.6 |
| 20260509023029 | 74 | 360 | 7.0 | 16.0 | 0.00 | 0.00 | 0.00 | 52 | 1007.5 |
| 20260509021522 | 75 | 360 | 8.0 | 14.0 | 0.00 | 0.00 | 0.00 | 51 | 1007.5 |
| 20260509020023 | 75 | 360 | 9.0 | 16.0 | 0.00 | 0.00 | 0.00 | 50 | 1007.3 |
| 20260509014522 | 76 | 360 | 7.0 | 14.0 | 0.00 | 0.00 | 0.00 | 49 | 1007.1 |
| 20260509013027 | 77 | 360 | 7.0 | 14.0 | 0.00 | 0.00 | 0.00 | 48 | 1007.1 |
| 20260509011622 | 78 | 360 | 7.0 | 15.0 | 0.00 | 0.00 | 0.00 | 45 | 1007.1 |